"Pseudo-MPEC" for SO000AX

Created 2026 Aug 15 20:35:30 UT using Find_Orb

Click here for an explanation of pseudo-MPECs

 
 Astrometry: 
     SO000AX*0B2026 08 15.58111122 00 21.101+00 13 57.04   ~8FFK 18.91VVNEOCPE54
     SO000AX 0B2026 08 15.58262722 00 15.989+00 11 43.80   ~8FFK 18.81VVNEOCPE54
     SO000AX 0B2026 08 15.58564922 00 05.808+00 07 18.01   ~8FFK 18.67VVNEOCPE54
     SO000AX 0B2026 08 15.58801021 59 57.864+00 03 50.29   ~8FFK 18.52VVNEOCPE54
     SO000AX 0B2026 08 15.58952221 59 52.764+00 01 37.52   ~8FFK 18.08VVNEOCPE54
     SO000AX 0B2026 08 15.59109221 59 47.506-00 00 39.38   ~8FFK 18.89VVNEOCPE54
     SO000AX 0B2026 08 15.59254521 59 42.612-00 02 47.08   ~8FFK 19.21VVNEOCPE54
     SO000AX 0B2026 08 15.59411721 59 37.339-00 05 04.63   ~8FFZ 19.23VVNEOCPE54
     SO000AX 0B2026 08 15.60822421 58 50.194-00 25 35.47   ~8FFZ 19.07VVNEOCPE54
     SO000AX 0B2026 08 15.60973421 58 45.139-00 27 46.15   ~8FFZ 18.53VVNEOCPE54
     SO000AX 0B2026 08 15.61124421 58 40.104-00 29 57.30   ~8FFK 18.57VVNEOCPE54
     SO000AX 0B2026 08 15.62073321 58 08.640-00 43 36.80   ~8FFo 18.83VVNEOCPE54
     SO000AX 0B2026 08 15.62229621 58 03.504-00 45 52.20   ~8FFo 18.48VVNEOCPE54
     SO000AX 0B2026 08 15.62584421 57 51.768-00 50 58.49   ~8FG5 19.05VVNEOCPE54
     SO000AX 0B2026 08 15.62740421 57 46.656-00 53 12.70   ~8FFo 18.34VVNEOCPE54
     SO000AX 0B2026 08 15.62890121 57 41.736-00 55 21.07   ~8FFo 18.63VVNEOCPE54
     SO000AX 0B2026 08 15.63043621 57 36.643-00 57 33.19   ~8FFo 18.35VVNEOCPE54
     SO000AX 0B2026 08 15.63190621 57 31.810-00 59 38.80   ~8FG5 19.4 VVNEOCPE54
     SO000AX 0B2026 08 15.63711221 57 14.784-01 07 05.56   ~8FG5 15.41VVNEOCPE54
     SO000AX 0B2026 08 15.71257321 53 15.312-02 52 20.64   ~8FHo 18.51VVNEOCPE54
     SO000AX 0B2026 08 15.71406121 53 10.752-02 54 21.85   ~8FHo 18.43VVNEOCPE54
     SO000AX 0B2026 08 15.71555021 53 06.216-02 56 23.86   ~8FHo 17.42VVNEOCPE54
     SO000AX 0B2026 08 15.72832321 52 27.480-03 13 43.50   ~8FIK 18.55VVNEOCPE54
     SO000AX 0B2026 08 15.72984821 52 22.882-03 15 46.69   ~8FIK 18.72VVNEOCPE54
     SO000AX 0B2026 08 15.73131521 52 18.504-03 17 45.49   ~8FIK 18.22VVNEOCPE54
     SO000AX 0B2026 08 15.73289821 52 13.740-03 19 54.16   ~8FIK 19.08VVNEOCPE54
     SO000AX 0B2026 08 15.74409821 51 40.399-03 34 56.17   ~8FIZ 18.12VVNEOCPE54
     SO000AX 0B2026 08 15.74564321 51 35.837-03 36 59.58   ~8FIZ 18.17VVNEOCPE54
     SO000AX 0B2026 08 15.74707021 51 31.663-03 38 53.63   ~8FIZ 18.53VVNEOCPE54
     SO000AX 1C2026 08 15.82564221 49 20.78 -05 42 44.4    ~8FKZ 18.8 GVNEOCPK88
     SO000AX 1C2026 08 15.82726821 49 16.17 -05 44 49.0    ~8FKZ 18.9 GVNEOCPK88
     SO000AX 1C2026 08 15.82890021 49 11.53 -05 46 54.3    ~8FKZ 19.1 GVNEOCPK88

Station data:
(E54) TransAstra at Springbrook  (S31.281736 E149.081470)  Australia/NSW.
(K88) GINOP-KHK, Piszkéstető  (N47.917453 E19.893670)  Hungary.  Observer K.
   Sárneczky. 0.60-m Schmidt + CCD.

Orbital elements:  SO000AX
   Perihelion 2026 May 7.457220 +/- 0.0248 TT = 10:58:23.8 (JD 2461167.957220)
Epoch 2026 Aug 16.0 TT = JDT 2461268.5   Earth MOID: 0.0059   Ve: 0.0892
M 129.884735365 +/- 0.045           (J2000 ecliptic)             AutoNEOCP
n   1.291835533 +/- 0.000142        Peri.   29.550267 +/- 0.026
a   0.834957874 +/- 6.11e-5         Node   143.107543 +/- 0.00012
e   0.29030537 +/- 5.18e-5          Incl.    8.471149 +/- 0.0028
P   0.763/278.668d         H 28.16  G  0.15   U  6.8
q 0.592565112 +/- 4.16e-5    Q 1.077350637 +/- 0.000108
From 32 observations 2026 Aug. 15 (5.9 hr); mean residual 0".31
Residuals in arcseconds: 
260815 E54  .12+  .10+    260815 E54  .33-  .90+    260815 E54  .04+  .07-    
260815 E54  .14+  .34+    260815 E54  .12+  .31+    260815 E54  .11-  .30+    
260815 E54  .16+  .32+    260815 E54  .29-  .39-    260815 E54  .31+  .24+    
260815 E54  .20+  .04-    260815 E54  .12+  .43-    260815 E54  .04+  .41-    
260815 E54  .04-  .15-    260815 E54  .23+  .15-    260815 E54  .07-  .25-    
260815 E54  .23+  .60+    260815 E54  .45-  .46-    260815 E54  .04-  .29+    
260815 E54  .01+  .19+    260815 E54  .51-  .05+    260815 E54  .47+  .63+    
260815 E54  .05+  .24+    260815 E54  .05+  .86-    260815 K88  .02-  .04-    
260815 E54  .24+  .72-    260815 E54  .01+  .08-    260815 K88  .05+  .09+    
260815 E54  .18-  .29-    260815 E54  .08-  .44+    260815 K88  .07-  .13-    
260815 E54  .36-  .44-    260815 E54  .13+  .13+    

Ephemerides (geocentric):
Date (UTC) HH   RA             Dec           delta  r     elong  mag " sig PA
---- --------  ------------   ------------  ------ ------ -----  --- --------
2026 08 15 21  21 46 40.178   -06 31 45.37  .00891 1.0216 172.4 18.5 .486  27
2026 08 15 22  21 44 54.471   -07 22 44.61  .00902 1.0217 173.3 18.5 .892  27
2026 08 15 23  21 43 10.935   -08 12 28.28  .00913 1.0218 174.2 18.5 1.37  27
2026 08 16 00  21 41 29.514   -09 00 57.44  .00925 1.0219 175.1 18.5 1.91  27
2026 08 16 01  21 39 50.156   -09 48 13.29  .00936 1.0220 175.9 18.4 2.51  27
2026 08 16 02  21 38 12.808   -10 34 17.10  .00948 1.0222 176.6 18.4 3.16  27
2026 08 16 03  21 36 37.419   -11 19 10.22  .00960 1.0223 177.2 18.4 3.86  27
2026 08 16 04  21 35 03.941   -12 02 54.06  .00972 1.0224 177.6 18.4 4.61  27
2026 08 16 05  21 33 32.324   -12 45 30.11  .00985 1.0225 177.8 18.4 5.39  27
2026 08 16 06  21 32 02.522   -13 26 59.85  .00997 1.0226 177.7 18.5 6.21  28
2026 08 16 07  21 30 34.489   -14 07 24.84  .01010 1.0227 177.3 18.5 7.05  28
2026 08 16 08  21 29 08.181   -14 46 46.63  .01023 1.0229 176.8 18.6 7.92  28
2026 08 16 09  21 27 43.554   -15 25 06.79  .01036 1.0230 176.2 18.6 8.81  28
2026 08 16 10  21 26 20.566   -16 02 26.90  .01050 1.0231 175.6 18.7 9.72  28
2026 08 16 11  21 24 59.177   -16 38 48.52  .01063 1.0232 174.9 18.8 10.7  28
2026 08 16 12  21 23 39.345   -17 14 13.22  .01077 1.0233 174.3 18.8 11.6  28
2026 08 16 13  21 22 21.033   -17 48 42.55  .01091 1.0234 173.7 18.9 12.5  28
2026 08 16 14  21 21 04.202   -18 22 18.05  .01105 1.0236 173.0 18.9 13.5  28
2026 08 16 15  21 19 48.816   -18 55 01.23  .01119 1.0237 172.4 19.0 14.5  28
2026 08 16 16  21 18 34.839   -19 26 53.58  .01133 1.0238 171.8 19.1 15.4  29
2026 08 16 17  21 17 22.237   -19 57 56.58  .01147 1.0239 171.2 19.1 16.4  29
2026 08 16 18  21 16 10.976   -20 28 11.65  .01162 1.0240 170.6 19.2 17.4  29
2026 08 16 19  21 15 01.023   -20 57 40.21  .01176 1.0241 170.0 19.2 18.3  29
2026 08 16 20  21 13 52.347   -21 26 23.62  .01191 1.0243 169.5 19.3 19.3  29
2026 08 16 21  21 12 44.915   -21 54 23.24  .01206 1.0244 168.9 19.3 20.3  29
2026 08 16 22  21 11 38.699   -22 21 40.37  .01220 1.0245 168.4 19.4 21.2  29
2026 08 16 23  21 10 33.669   -22 48 16.28  .01235 1.0246 167.8 19.4 22.2  29
2026 08 17 00  21 09 29.796   -23 14 12.23  .01250 1.0247 167.3 19.4 23.1  29
2026 08 17 01  21 08 27.054   -23 39 29.41  .01266 1.0248 166.8 19.5 24.1  30
2026 08 17 02  21 07 25.415   -24 04 09.01  .01281 1.0250 166.3 19.5 25.0  30
2026 08 17 03  21 06 24.853   -24 28 12.15  .01296 1.0251 165.8 19.6 25.9  30
2026 08 17 04  21 05 25.342   -24 51 39.95  .01312 1.0252 165.3 19.6 26.8  30
2026 08 17 05  21 04 26.859   -25 14 33.48  .01327 1.0253 164.9 19.7 27.7  30
2026 08 17 06  21 03 29.379   -25 36 53.78  .01343 1.0254 164.4 19.7 28.6  30
2026 08 17 07  21 02 32.879   -25 58 41.86  .01358 1.0255 164.0 19.7 29.5  30
2026 08 17 08  21 01 37.336   -26 19 58.68  .01374 1.0256 163.5 19.8 30.4  30
2026 08 17 09  21 00 42.728   -26 40 45.20  .01390 1.0258 163.1 19.8 31.3  30
2026 08 17 10  20 59 49.034   -27 01 02.33  .01406 1.0259 162.7 19.9 32.1  30
2026 08 17 11  20 58 56.234   -27 20 50.95  .01422 1.0260 162.3 19.9 33.0  31
2026 08 17 12  20 58 04.306   -27 40 11.93  .01437 1.0261 161.9 19.9 33.8  31
2026 08 17 13  20 57 13.231   -27 59 06.08  .01454 1.0262 161.5 20.0 34.6  31
2026 08 17 14  20 56 22.991   -28 17 34.20  .01470 1.0263 161.1 20.0 35.4  31
2026 08 17 15  20 55 33.566   -28 35 37.08  .01486 1.0264 160.7 20.0 36.2  31
2026 08 17 16  20 54 44.939   -28 53 15.46  .01502 1.0265 160.3 20.1 37.0  31
2026 08 17 17  20 53 57.091   -29 10 30.06  .01518 1.0267 160.0 20.1 37.8  31
2026 08 17 18  20 53 10.006   -29 27 21.58  .01535 1.0268 159.6 20.2 38.5  31
2026 08 17 19  20 52 23.667   -29 43 50.70  .01551 1.0269 159.3 20.2 39.3  31
2026 08 17 20  20 51 38.058   -29 59 58.07  .01567 1.0270 158.9 20.2 40.0  31